SKYSAT 2

导读 | 星芒AI

SKYSAT 2 是 Skybox Imaging(现为 Planet Labs 旗下)发射的一颗高分辨率商业遥感卫星,于2013年发射。该卫星具备亚米级光学成像能力,主要用于提供高清晰度的地球观测图像,服务于农业、城市规划、环境监测和灾害评估等领域。SKYSAT 2 采用先进的成像技术和数据传输系统,能够快速获取并回传高分辨率影像,增强了实时监测能力。作为 SkySat 系列的一部分,SKYSAT 2 在推动商业遥感技术发展和应用普及方面发挥了重要作用。

基本信息
目录编号:
40072
目录名称:
SKYSAT 2
国际标识:
2014-037D
轨道中心:
EARTH
卫星名称:
SKYSAT 2
卫星全名:
--
卫星状态:
在轨 (已飞行4179 天)
发射日期:
2014-07-08 UTC
国别 :
美国 (US)
星等 :
--
轨道信息
数据来源 国际轨道数据
星历时间: 2025-12-15T15:27:07+0800
17小时前
查看轨道信息
半长轴: 6984.396km
偏心率: 0.0006354
轨道倾角: 98.361°
近地点辐角 142.589°
升交点赤经 293.152°
平近点角 217.577°
近地点: 601.823km
远地点: 610.699km
周期: 96.817分钟
每日圈数: 14.873375
详细信息
使用方式:
暂无
2D轨道图
3D轨道图
轨道高度分析图
轨道倾角分析图
轨道综合分析图
查看轨道综合分析图